Date String (YYYY-MM-DD hh:mm:ss) UTC,Instrument flags,Ambient pressure (hPa),Sample flow (lpm),Bypass flow (lpm),Sample temperature (°C),Ambient temperature (°C),ASC tube jacket temperature (°C),LED temperature (°C),Box temperature (°C),Sample RH (%),Span deviation,Mass concentration (μg/m³),Mass concentration (μg/m³),Mass concentration (μg/m³)
DateTimeUTC,F1_M11,P_M11,Q1_M11,Q2_M11,T1_M11,T2_M11,T3_M11,T4_M11,T5_M11,U1_M11,ZSPAN_M11,X0_M11,X2_M11,X1_M11
2022-05-18 11:00:00,,0827.7,5.02,0.00,30.2,28.9,00.0,39.2,32.0,21.6,0000.0,0011.20,0003.59,0002.11
2022-05-18 11:01:00,,0827.7,5.01,0.00,30.2,28.9,00.0,39.2,32.0,21.6,0000.0,0011.57,0003.61,0002.09
2022-05-18 11:02:00,,0827.7,4.99,0.00,30.2,29.0,00.0,39.2,32.0,21.6,0000.0,0011.88,0003.65,0002.10
2022-05-18 11:03:00,,0827.7,5.00,0.00,30.2,29.0,00.0,39.2,32.0,21.6,0000.0,0011.83,0003.61,0002.10
2022-05-18 11:04:00,,0827.8,5.00,0.00,30.2,29.0,00.0,39.2,32.0,21.7,0000.0,0011.41,0003.58,0002.11
2022-05-18 11:05:00,,0827.8,5.01,0.00,30.2,29.0,00.0,39.2,32.0,21.6,0000.0,0011.44,0003.58,0002.10
2022-05-18 11:06:00,,0827.9,5.01,0.00,30.2,29.0,00.0,39.2,32.0,21.6,0000.0,0011.24,0003.61,0002.10
2022-05-18 11:07:00,,0827.9,5.00,0.00,30.2,29.0,00.0,39.3,32.0,21.6,0000.0,0011.31,0003.62,0002.10
2022-05-18 11:08:00,,0827.9,4.99,0.00,30.2,29.0,00.0,39.3,32.0,21.6,0000.0,0011.39,0003.65,0002.09
2022-05-18 11:09:00,,0827.9,4.99,0.00,30.3,29.0,00.0,39.3,32.0,21.7,0000.0,0011.32,0003.70,0002.10
2022-05-18 11:10:00,,0827.8,5.02,0.00,30.3,29.0,00.0,39.3,32.1,21.7,0000.0,0011.02,0003.71,0002.08
2022-05-18 11:11:00,,0827.8,5.00,0.00,30.3,29.0,00.0,39.3,32.1,21.7,0000.0,0010.44,0003.68,0002.09
2022-05-18 11:12:00,,0827.9,4.99,0.00,30.3,29.0,00.0,39.3,32.1,21.7,0000.0,0009.69,0003.68,0002.12
2022-05-18 11:13:00,,0827.9,5.01,0.00,30.3,29.0,00.0,39.3,32.1,21.7,0000.0,0009.57,0003.62,0002.13
2022-05-18 11:14:00,,0827.8,5.00,0.00,30.3,29.0,00.0,39.3,32.1,21.6,0000.0,0010.36,0003.61,0002.13
2022-05-18 11:15:00,,0827.8,4.99,0.00,30.3,29.0,00.0,39.3,32.1,21.5,0000.0,0010.64,0003.60,0002.13
2022-05-18 11:16:00,,0827.9,4.99,0.00,30.3,29.0,00.0,39.3,32.0,21.5,0000.0,0011.25,0003.59,0002.14
2022-05-18 11:17:00,,0827.9,4.99,0.00,30.3,29.0,00.0,39.3,32.0,21.5,0000.0,0011.45,0003.62,0002.13
2022-05-18 11:18:00,,0827.9,4.99,0.00,30.3,28.9,00.0,39.3,32.1,21.5,0000.0,0011.32,0003.60,0002.13
2022-05-18 11:19:00,,0827.8,5.01,0.00,30.3,29.0,00.0,39.3,32.0,21.5,0000.0,0011.73,0003.56,0002.13
2022-05-18 11:20:00,,0827.8,5.01,0.00,30.3,29.0,00.0,39.3,32.1,21.6,0000.0,0011.85,0003.51,0002.12
2022-05-18 11:21:00,,0827.8,4.99,0.00,30.3,29.0,00.0,39.3,32.1,21.6,0000.0,0012.31,0003.49,0002.14
2022-05-18 11:22:00,,0827.8,5.00,0.00,30.3,29.0,00.0,39.4,32.1,21.6,0000.0,0013.61,0003.49,0002.13
2022-05-18 11:23:00,,0827.8,5.00,0.00,30.3,29.0,00.0,39.4,32.1,21.6,0000.0,0014.11,0003.52,0002.12
2022-05-18 11:24:00,,0827.8,5.01,0.00,30.3,29.1,00.0,39.4,32.1,21.6,0000.0,0014.12,0003.56,0002.12
2022-05-18 11:25:00,,0827.7,5.01,0.00,30.3,29.1,00.0,39.4,32.1,21.5,0000.0,0013.33,0003.61,0002.13
2022-05-18 11:26:00,,0827.7,4.99,0.00,30.3,29.1,00.0,39.4,32.1,21.6,0000.0,0012.90,0003.64,0002.12
2022-05-18 11:27:00,,0827.7,4.99,0.00,30.3,29.1,00.0,39.4,32.1,21.5,0000.0,0012.73,0003.66,0002.11
2022-05-18 11:28:00,,0827.7,4.99,0.00,30.4,29.1,00.0,39.4,32.1,21.5,0000.0,0012.91,0003.68,0002.11
2022-05-18 11:29:00,,0827.9,5.01,0.00,30.4,29.1,00.0,39.4,32.1,21.5,0000.0,0012.80,0003.68,0002.13
2022-05-18 11:30:00,,0827.7,5.00,0.00,30.4,29.1,00.0,39.4,32.1,21.5,0000.0,0012.21,0003.67,0002.14
2022-05-18 11:31:00,,0827.8,5.00,0.00,30.4,29.1,00.0,39.4,32.1,21.5,0000.0,0012.15,0003.71,0002.16
2022-05-18 11:32:00,,0827.7,4.99,0.00,30.4,29.1,00.0,39.4,32.2,21.5,0000.0,0011.76,0003.73,0002.17
2022-05-18 11:33:00,,0827.7,5.02,0.00,30.4,29.1,00.0,39.4,32.2,21.5,0000.0,0010.86,0003.74,0002.17
2022-05-18 11:34:00,,0827.7,5.00,0.00,30.4,29.1,00.0,39.4,32.2,21.5,0000.0,0010.20,0003.74,0002.18
2022-05-18 11:35:00,,0827.7,4.99,0.00,30.4,29.1,00.0,39.4,32.2,21.5,0000.0,0010.35,0003.77,0002.19
2022-05-18 11:36:00,,0827.7,5.00,0.00,30.4,29.1,00.0,39.4,32.2,21.5,0000.0,0010.57,0003.75,0002.19
2022-05-18 11:37:00,,0827.7,5.01,0.00,30.4,29.1,00.0,39.4,32.2,21.5,0000.0,0010.52,0003.72,0002.20
2022-05-18 11:38:00,,0827.7,5.01,0.00,30.4,29.1,00.0,39.5,32.2,21.5,0000.0,0010.71,0003.74,0002.22
2022-05-18 11:39:00,,0827.7,5.00,0.00,30.4,29.1,00.0,39.5,32.2,21.5,0000.0,0010.28,0003.70,0002.23
2022-05-18 11:40:00,,0827.7,5.00,0.00,30.4,29.1,00.0,39.5,32.2,21.5,0000.0,0010.70,0003.70,0002.23
2022-05-18 11:41:00,,0827.7,5.00,0.00,30.4,29.1,00.0,39.5,32.2,21.4,0000.0,0011.79,0003.73,0002.24
2022-05-18 11:42:00,,0827.7,5.01,0.00,30.4,29.1,00.0,39.5,32.2,21.5,0000.0,0011.81,0003.72,0002.23
2022-05-18 11:43:00,,0827.7,5.00,0.00,30.4,29.1,00.0,39.5,32.2,21.5,0000.0,0012.47,0003.74,0002.22
2022-05-18 11:44:00,,0827.7,5.00,0.00,30.4,29.0,00.0,39.5,32.2,21.5,0000.0,0012.53,0003.74,0002.23
2022-05-18 11:45:00,,0827.7,5.00,0.00,30.4,29.0,00.0,39.5,32.2,21.5,0000.0,0013.14,0003.74,0002.23
2022-05-18 11:46:00,,0827.7,4.99,0.00,30.4,29.0,00.0,39.5,32.2,21.5,0000.0,0013.32,0003.68,0002.22
2022-05-18 11:47:00,,0827.7,5.00,0.00,30.4,29.0,00.0,39.5,32.2,21.5,0000.0,0012.76,0003.65,0002.20
2022-05-18 11:48:00,,0827.7,5.01,0.00,30.4,29.0,00.0,39.5,32.2,21.5,0000.0,0012.71,0003.63,0002.17
2022-05-18 11:49:00,,0827.7,5.00,0.00,30.4,29.0,00.0,39.5,32.1,21.5,0000.0,0012.15,0003.60,0002.14
2022-05-18 11:50:00,,0827.7,5.00,0.00,30.4,29.0,00.0,39.5,32.1,21.5,0000.0,0012.16,0003.61,0002.12
2022-05-18 11:51:00,,0827.7,4.99,0.00,30.4,29.1,00.0,39.5,32.1,21.6,0000.0,0012.02,0003.65,0002.12
2022-05-18 11:52:00,,0827.7,5.01,0.00,30.4,29.1,00.0,39.5,32.2,21.6,0000.0,0011.07,0003.66,0002.12
2022-05-18 11:53:00,,0827.7,5.01,0.00,30.4,29.1,00.0,39.5,32.2,21.6,0000.0,0011.25,0003.62,0002.10
2022-05-18 11:54:00,,0827.7,5.00,0.00,30.4,29.1,00.0,39.5,32.2,21.5,0000.0,0011.27,0003.58,0002.09
2022-05-18 11:55:00,,0827.7,5.01,0.00,30.4,29.1,00.0,39.5,32.2,21.6,0000.0,0011.83,0003.65,0002.08
2022-05-18 11:56:00,,0827.7,4.99,0.00,30.4,29.1,00.0,39.5,32.2,21.6,0000.0,0011.40,0003.66,0002.06
2022-05-18 11:57:00,,0827.6,5.00,0.00,30.4,29.1,00.0,39.5,32.2,21.5,0000.0,0010.84,0003.62,0002.03
2022-05-18 11:58:00,,0827.6,5.00,0.00,30.4,29.1,00.0,39.5,32.2,21.6,0000.0,0010.92,0003.66,0002.02
2022-05-18 11:59:00,,0827.5,5.01,0.00,30.4,29.1,00.0,39.5,32.2,21.6,0000.0,0011.12,0003.66,0002.01
